Regional Weather Roundup
Issued by NWS

Home | Current Version | Previous Version | Graphics & Text | Print | Product List | Glossary Off
Versions: 1 2 3 4 5 6 7 8 9 10 11 12 13 14 15 16 17 18 19 20 21 22 23 24 25 26 27 28 29 30 31 32 33 34 35 36 37 38 39 40 41 42 43 44 45 46 47 48 49 50

000
ASUS43 KMKX 270421
RWRWI

WISCONSIN REGIONAL WEATHER ROUNDUP
NATIONAL WEATHER SERVICE MILWAUKEE/SULLIVAN WI
1000 PM CST FRI DEC 26 2014

NOTE: "FAIR" INDICATES FEW OR NO CLOUDS BELOW 12,000 FEET WITH NO
SIGNIFICANT WEATHER AND/OR OBSTRUCTIONS TO VISIBILITY.

WIZ001-002-006>008-014>016-023>028-270500-
NORTHWEST WISCONSIN

CITY           SKY/WX    TMP DP  RH WIND       PRES   REMARKS
SUPERIOR ARPT  CLOUDY    29  21  72 N8        30.11F WCI  21
ASHLAND        CLOUDY    30  26  85 NW3       30.09S
HAYWARD        LGT SNOW  28  26  92 CALM      30.07S FOG
SIREN          LGT SNOW  28  26  94 N3        30.09S
CUMBERLAND     LGT SNOW  28  27  93 N9        30.04F WCI  20
RICE LAKE      LGT SNOW  30  28  92 N9        30.05F WCI  21
CHETEK         LGT SNOW  29  28  96 N5        30.04F WCI  24
LADYSMITH      LGT SNOW  30  29  95 N8        30.05S WCI  23
EAU CLAIRE     FLURRIES  32  27  81 N7        30.02F WCI  26
MENOMONIE      MIX PCPN  32  30  93 N6        30.03F WCI  26
NEW RICHMOND   LGT SNOW  28  28  98 N10       30.05F WCI  19
OSCEOLA        LGT SNOW  29  29 100 N6        30.10S WCI  23
$$

WIZ003>005-009-010-017-018-270500-
NORTH CENTRAL WISCONSIN

CITY           SKY/WX    TMP DP  RH WIND       PRES   REMARKS
MANITOWISH WTR LGT SNOW  28  28 100 CALM      30.02F
ARBOR VITAE    LGT SNOW  32  30  94 CALM      30.02F
WOODRUFF       LGT SNOW  32  30  94 CALM      30.02F
RHINELANDER    LGT SNOW  29  28  96 CALM      30.01S FOG
EAGLE RIVER    LGT SNOW  29  29 100 CALM      30.01F
LAND O LAKES   LGT SNOW  30  29  96 CALM      30.03S
PHILLIPS       FLURRIES  28  28  96 N6        30.02F WCI  22
TOMAHAWK       LGT SNOW  30  28  94 CALM      30.02S
MEDFORD        CLOUDY    31  29  93 NE9       29.99F WCI  23
MERRILL        CLOUDY    32  32  99 NE6       30.01S FOG     WCI  26
$$

WIZ029-030-035-036-043>047-270500-
CENTRAL WISCONSIN

CITY           SKY/WX    TMP DP  RH WIND       PRES   REMARKS
WAUSAU         LGT SNOW  33  32  96 E3        29.99F FOG
MOSINEE        LGT SNOW  32  32 100 E5        30.01F WCI  27
MARSHFIELD     LGT SNOW  33  32  96 NE5       29.99F VSB 1   WCI  29
STEVENS POINT  CLOUDY    31  31  99 NE3       30.01S FOG
WAUPACA        CLOUDY    34  33  96 N3        30.02F FOG
WAUTOMA        CLOUDY    34  34 100 NE3       30.01F FOG
WISC RAPIDS    CLOUDY    33  30  88 E5        30.01F WCI  29
CAMP DOUGLAS   CLOUDY    34  34 100 N2        30.00S
$$

WIZ011>013-019>022-031-037>040-048>050-270500-
NORTHEAST WISCONSIN

CITY           SKY/WX    TMP DP  RH WIND       PRES   REMARKS
ANTIGO         CLOUDY    31  31 100 E5        30.01S FOG     WCI  26
SHAWANO        FOG       35  33  95 NE5       30.03F VSB<1/4 WCI  31
OCONTO         CLOUDY    34  34  99 NE3       30.03F
STURGEON BAY   CLOUDY    36  34  93 CALM      30.04S
GREEN BAY      CLOUDY    35  33  92 NE9       30.02S FOG     WCI  28
MANITOWOC      CLOUDY    35  35 100 N3        30.02S
APPLETON       CLOUDY    34  34 100 N6        30.02R FOG     WCI  29
CLINTONVILLE   FOG       32  32 100 NE3       30.03S VSB 1/4
OSHKOSH        CLOUDY    34  32  92 NE5       30.01S FOG     WCI  30
$$

WIZ032>034-041-042-053>061-270500-
SOUTHWEST WISCONSIN

CITY           SKY/WX    TMP DP  RH WIND       PRES   REMARKS
LA CROSSE      CLOUDY    33  32  96 NW7       30.00F FOG     WCI  27
SPARTA         CLOUDY    34  33  97 CALM      30.01F FOG
VIROQUA        CLOUDY    34  34 100 NE3       29.97F
BOSCOBEL       MOCLDY    30  28  92 CALM      29.99S FOG
PRAIRIE DU CHI MOCLDY    31  29  94 CALM      29.98F
PLATTEVILLE    CLOUDY    37  35  90 SE5       29.98R WCI  34
$$

WIZ056-057-062-063-064-067-068-270500-
SOUTH CENTRAL WISCONSIN

CITY           SKY/WX    TMP DP  RH WIND       PRES   REMARKS
REEDSBURG      PTCLDY    30  29  99 CALM      29.98S
BARABOO/DELLS  PTCLDY    32  31  97 CALM      29.98S
LONE ROCK      CLEAR     32  28  85 E3        29.98F
MINERAL POINT  CLOUDY    39  36  87 CALM      29.97R
MADISON        MOCLDY    33  31  92 CALM      29.99S
MIDDLETON      CLOUDY    33  33  99 CALM      29.99F
WATERTOWN      CLOUDY    35  35 100 CALM      29.99F
MONROE         CLOUDY    39  36  87 SE5       29.97S
JANESVILLE     CLOUDY    37  36  93 SE3       29.99S
$$

WIZ051-052-058>065-066-070>072-270500-
SOUTHEAST WISCONSIN

CITY           SKY/WX    TMP DP  RH WIND       PRES   REMARKS
MILWAUKEE      MOCLDY    36  33  89 CALM      30.01S
WAUKESHA       PTCLDY    32  32 100 CALM      30.00F
MILWAUKEE/TIMM PTCLDY    39  34  81 CALM      30.01F
RACINE         MOCLDY    41  36  82 S3        30.03S
BURLINGTON     CLOUDY    34  34  99 CALM      30.01S
KENOSHA        CLOUDY    44  39  82 S6        30.02S
FOND DU LAC    MOCLDY    34  31  88 CALM      30.01S FOG
SHEBOYGAN      CLOUDY    36  34  92 N5        30.01S WCI  32
WEST BEND      CLOUDY    32  32 100 CALM      30.00S
JUNEAU         CLOUDY    34  32  94 E6        30.00F WCI  29
$$

LSZ147-162-270500-
LAKE SUPERIOR

STATION/POSITION TIME  TEMP    WIND        PRES    WAVE
                       AIR SEA DIR/SP/G            HT/PER
                 (UTC) (F)     (DEG/KT/KT) (MB)    (FT/S)
DEVILS ISLAND    0400   31     350/ 16/ 17 1019.9F
PORT WING        0340   31     350/ 12/ 14 1019.6S
SAXON HARBOR     0300   33     330/  5/  6 1019.0R
$$

LMZ867-665-643>646-270500-
LAKE MICHIGAN

STATION/POSITION TIME  TEMP    WIND        PRES    WAVE
                       AIR SEA DIR/SP/G            HT/PER
                 (UTC) (F)     (DEG/KT/KT) (MB)    (FT/S)
CHAMBERS ISLAND  0300   35      30/  6/  8 1017.3
NORTHPORT PIER   0300   35      60/  3/  4 1017.3S
SISTER BAY       0313             CALM       N/A
ALGOMA LAKESHORE 0345           50/  6/  8   N/A
KEWAUNEE LAKESHO 0400   36      30/  4/  7 1015.7F
SHEBOYGAN LAKESH 0400   36 39  350/  6/  6 1017.2R
PORT WASHINGTON  0300   36     280/  1/  2 1017.3
MILWAUKEE LAKESH 0400   39     200/  1/  1   N/A
KENOSHA   LAKESH 0400   43     190/  7/  9 1016.6S
$$

TC  - TEMPERATURE IN CELSIUS
VSB - VISIBILITY IN STATUTE MILES
WCI - WIND CHILL INDEX
HX  - HEAT INDEX



USA.gov is the U.S. government's official web portal to all federal, state and local government web resources and services.